• In Moldova, Republic
  • List of Countries
  • For 7 days
  • Water Temperature
  • Satellite Maps
  • Weather Map
  • Weather Widgets
  • user-avatar
    Login

    Hourly Weather Bregenz

    Today, 26 June, Monday

    Time Temperature Precipitation Wind Pressure Humidity
    00:00 +9°C° 0 mm 1 mps 647 mmHg 93%
    01:00 +9°C° 0 mm 1 mps 647 mmHg 93%
    02:00 +9°C° 0 mm 1 mps 647 mmHg 92%
    03:00 +8°C° 0 mm 2 mps 647 mmHg 91%
    04:00 +8°C° 0 mm 2 mps 646 mmHg 90%
    05:00 +11°C° 0 mm 1 mps 647 mmHg 83%
    06:00 +13°C° 0 mm 1 mps 647 mmHg 77%
    07:00 +15°C° 0 mm 1 mps 647 mmHg 71%
    08:00 +18°C° 0 mm 1 mps 648 mmHg 62%
    09:00 +21°C° 0 mm 1 mps 648 mmHg 53%
    10:00 +23°C° 0 mm 1 mps 649 mmHg 44%
    11:00 +24°C° 0 mm 1 mps 649 mmHg 42%
    12:00 +25°C° 0 mm 1 mps 649 mmHg 40%
    13:00 +25°C° 0 mm 2 mps 649 mmHg 38%
    14:00 +25°C° 0.1 mm 2 mps 648 mmHg 42%
    15:00 +25°C° 0.1 mm 2 mps 648 mmHg 46%
    16:00 +24°C° 0.1 mm 2 mps 648 mmHg 49%
    17:00 +23°C° 0.5 mm 2 mps 647 mmHg 61%
    18:00 +21°C° 0.5 mm 1 mps 647 mmHg 74%
    19:00 +20°C° 0.5 mm 1 mps 647 mmHg 86%
    20:00 +18°C° 1.6 mm 1 mps 646 mmHg 89%
    21:00 +15°C° 1.6 mm 1 mps 646 mmHg 91%
    22:00 +14°C° 1.6 mm 1 mps 646 mmHg 94%
    23:00 +14°C° 0.7 mm 1 mps 646 mmHg 94%

    Tomorrow, 27 June, Tuesday

    Time Temperature Precipitation Wind Pressure Humidity
    00:00 +13°C° 0.7 mm 1 mps 646 mmHg 94%
    01:00 +13°C° 0.7 mm 1 mps 646 mmHg 95%
    02:00 +13°C° 0.1 mm 2 mps 645 mmHg 94%
    03:00 +12°C° 0.1 mm 2 mps 645 mmHg 94%
    04:00 +12°C° 0.1 mm 2 mps 644 mmHg 93%
    05:00 +13°C° 0 mm 1 mps 645 mmHg 92%
    06:00 +14°C° 0 mm 1 mps 645 mmHg 90%
    07:00 +15°C° 0 mm 1 mps 645 mmHg 89%
    08:00 +18°C° 0.3 mm 1 mps 645 mmHg 82%
    09:00 +20°C° 0.3 mm 1 mps 646 mmHg 76%
    10:00 +21°C° 0.3 mm 1 mps 646 mmHg 69%
    11:00 +22°C° 0.6 mm 1 mps 646 mmHg 67%
    12:00 +23°C° 0.6 mm 1 mps 646 mmHg 65%
    13:00 +23°C° 0.6 mm 1 mps 646 mmHg 62%
    14:00 +23°C° 0.8 mm 1 mps 645 mmHg 63%
    15:00 +23°C° 0.8 mm 1 mps 645 mmHg 63%
    16:00 +23°C° 0.8 mm 1 mps 645 mmHg 64%
    17:00 +22°C° 0.8 mm 1 mps 644 mmHg 71%
    18:00 +21°C° 0.8 mm 1 mps 644 mmHg 79%
    19:00 +20°C° 0.8 mm 1 mps 644 mmHg 86%
    20:00 +18°C° 0.5 mm 1 mps 643 mmHg 88%
    21:00 +15°C° 0.5 mm 1 mps 643 mmHg 89%
    22:00 +13°C° 0.5 mm 1 mps 642 mmHg 91%
    23:00 +13°C° 0.2 mm 1 mps 642 mmHg 91%

    Day after tomorrow, 28 June, Wednesday

    Time Temperature Precipitation Wind Pressure Humidity
    00:00 +13°C° 0.2 mm 2 mps 641 mmHg 91%
    01:00 +13°C° 0.2 mm 2 mps 641 mmHg 91%
    02:00 +12°C° 0.4 mm 2 mps 641 mmHg 91%
    03:00 +12°C° 0.4 mm 2 mps 640 mmHg 91%
    04:00 +12°C° 0.4 mm 2 mps 640 mmHg 91%
    05:00 +13°C° 0.3 mm 2 mps 640 mmHg 90%
    06:00 +14°C° 0.3 mm 2 mps 640 mmHg 89%
    07:00 +15°C° 0.3 mm 1 mps 641 mmHg 87%
    08:00 +16°C° 0.9 mm 2 mps 641 mmHg 85%
    09:00 +16°C° 0.9 mm 2 mps 640 mmHg 83%
    10:00 +17°C° 0.9 mm 2 mps 640 mmHg 81%
    11:00 +18°C° 1.2 mm 1 mps 640 mmHg 81%
    12:00 +18°C° 1.2 mm 1 mps 640 mmHg 81%
    13:00 +19°C° 1.2 mm 1 mps 640 mmHg 81%
    14:00 +19°C° 1.3 mm 1 mps 640 mmHg 81%
    15:00 +19°C° 1.3 mm 1 mps 639 mmHg 80%
    16:00 +19°C° 1.3 mm 1 mps 639 mmHg 79%
    17:00 +18°C° 3.1 mm 1 mps 638 mmHg 85%
    18:00 +15°C° 3.1 mm 1 mps 638 mmHg 90%
    19:00 +14°C° 3.1 mm 1 mps 637 mmHg 95%
    20:00 +13°C° 1.5 mm 1 mps 637 mmHg 96%
    21:00 +12°C° 1.5 mm 1 mps 636 mmHg 97%
    22:00 +10°C° 1.5 mm 2 mps 636 mmHg 97%
    23:00 +10°C° 0.8 mm 2 mps 636 mmHg 97%

    29 June, Thursday

    Time Temperature Precipitation Wind Pressure Humidity
    00:00 +10°C° 0.8 mm 2 mps 636 mmHg 97%
    01:00 +10°C° 0.8 mm 2 mps 635 mmHg 97%
    02:00 +10°C° 1.6 mm 2 mps 635 mmHg 97%
    03:00 +9°C° 1.6 mm 2 mps 635 mmHg 97%
    04:00 +9°C° 1.6 mm 3 mps 635 mmHg 97%
    05:00 +9°C° 1 mm 3 mps 635 mmHg 97%
    06:00 +9°C° 1 mm 3 mps 635 mmHg 97%
    07:00 +9°C° 1 mm 3 mps 635 mmHg 97%
    08:00 +9°C° 0.8 mm 3 mps 636 mmHg 96%
    09:00 +9°C° 0.8 mm 3 mps 636 mmHg 95%
    10:00 +10°C° 0.8 mm 3 mps 636 mmHg 94%
    11:00 +10°C° 1.2 mm 3 mps 636 mmHg 94%
    12:00 +9°C° 1.2 mm 3 mps 637 mmHg 95%
    13:00 +8°C° 1.2 mm 4 mps 637 mmHg 95%
    14:00 +8°C° 1 mm 4 mps 637 mmHg 94%
    15:00 +8°C° 1 mm 4 mps 638 mmHg 94%
    16:00 +8°C° 1 mm 4 mps 638 mmHg 93%
    17:00 +7°C° 0.5 mm 4 mps 638 mmHg 92%
    18:00 +7°C° 0.5 mm 4 mps 639 mmHg 92%
    19:00 +8°C° 0.5 mm 3 mps 639 mmHg 91%
    20:00 +7°C° 0.1 mm 3 mps 639 mmHg 92%
    21:00 +6°C° 0.1 mm 2 mps 640 mmHg 92%
    22:00 +6°C° 0.1 mm 2 mps 640 mmHg 92%
    23:00 +5°C° 0 mm 2 mps 640 mmHg 92%

    30 June, Friday

    Time Temperature Precipitation Wind Pressure Humidity
    00:00 +5°C° 0 mm 2 mps 640 mmHg 92%
    01:00 +4°C° 0 mm 2 mps 640 mmHg 92%
    02:00 +4°C° 0 mm 2 mps 640 mmHg 92%
    03:00 +3°C° 0 mm 2 mps 640 mmHg 92%
    04:00 +3°C° 0 mm 2 mps 640 mmHg 93%
    05:00 +4°C° 0 mm 2 mps 641 mmHg 89%
    06:00 +6°C° 0 mm 2 mps 641 mmHg 85%
    07:00 +8°C° 0 mm 2 mps 642 mmHg 82%
    08:00 +10°C° 0.1 mm 2 mps 643 mmHg 74%
    09:00 +12°C° 0.1 mm 2 mps 643 mmHg 66%
    10:00 +14°C° 0.1 mm 2 mps 644 mmHg 59%
    11:00 +13°C° 0.6 mm 3 mps 644 mmHg 61%
    12:00 +13°C° 0.6 mm 3 mps 644 mmHg 63%
    13:00 +13°C° 0.6 mm 3 mps 644 mmHg 65%
    14:00 +13°C° 1 mm 3 mps 644 mmHg 67%
    15:00 +13°C° 1 mm 3 mps 644 mmHg 68%
    16:00 +12°C° 1 mm 3 mps 644 mmHg 70%
    17:00 +11°C° 1.1 mm 3 mps 644 mmHg 77%
    18:00 +10°C° 1.1 mm 2 mps 644 mmHg 85%
    19:00 +9°C° 1.1 mm 2 mps 644 mmHg 92%
    20:00 +8°C° 0.3 mm 2 mps 644 mmHg 92%
    21:00 +7°C° 0.3 mm 2 mps 644 mmHg 93%
    22:00 +7°C° 0.3 mm 1 mps 644 mmHg 94%
    23:00 +6°C° 0 mm 1 mps 644 mmHg 94%

    1 July, Saturday

    Time Temperature Precipitation Wind Pressure Humidity
    00:00 +6°C° 0 mm 1 mps 644 mmHg 93%
    01:00 +6°C° 0 mm 1 mps 643 mmHg 93%
    02:00 +5°C° 0 mm 1 mps 643 mmHg 93%
    03:00 +4°C° 0 mm 1 mps 643 mmHg 92%
    04:00 +4°C° 0 mm 1 mps 643 mmHg 92%
    05:00 +6°C° 0 mm 1 mps 643 mmHg 89%
    06:00 +8°C° 0 mm 1 mps 644 mmHg 86%
    07:00 +9°C° 0 mm 0 mps 645 mmHg 83%
    08:00 +12°C° 0.1 mm 1 mps 645 mmHg 74%
    09:00 +13°C° 0.1 mm 2 mps 645 mmHg 66%
    10:00 +15°C° 0.1 mm 2 mps 646 mmHg 57%
    11:00 +14°C° 0.3 mm 3 mps 646 mmHg 59%
    12:00 +14°C° 0.3 mm 3 mps 646 mmHg 61%
    13:00 +14°C° 0.3 mm 3 mps 646 mmHg 64%
    14:00 +14°C° 0.5 mm 4 mps 646 mmHg 69%
    15:00 +13°C° 0.5 mm 4 mps 646 mmHg 74%
    16:00 +13°C° 0.5 mm 4 mps 646 mmHg 79%
    17:00 +11°C° 0.5 mm 4 mps 646 mmHg 84%
    18:00 +10°C° 0.5 mm 4 mps 646 mmHg 89%
    19:00 +9°C° 0.5 mm 3 mps 646 mmHg 93%
    20:00 +9°C° 0.9 mm 3 mps 647 mmHg 95%
    21:00 +8°C° 0.9 mm 3 mps 647 mmHg 97%
    22:00 +7°C° 0.9 mm 2 mps 647 mmHg 98%
    23:00 +7°C° 0.6 mm 2 mps 648 mmHg 98%
    Show more